Regional Weather Roundup
Issued by NWS Boston, MA

Current Version | Previous Version | Text Only | Print | Product List | Glossary Off
Versions: 1 2 3 4 5 6 7 8 9 10 11 12 13 14 15 16 17 18 19 20 21 22 23 24 25 26 27 28

000
ASUS41 KBOX 162210
RWRBOX

REGIONAL WEATHER ROUNDUP
NATIONAL WEATHER SERVICE TAUNTON MA
500 PM EST THU NOV 16 2017

NOTE:  "FAIR" INDICATES FEW OR NO CLOUDS BELOW 12,000 FEET WITH NO
SIGNIFICANT WEATHER AND/OR OBSTRUCTIONS TO VISIBILITY.

MAZALL-162300-
EASTERN MASSACHUSETTS

CITY           SKY/WX    TMP DP  RH WIND       PRES   REMARKS
BOSTON         CLOUDY    47  46  97 CALM      29.68F
BEVERLY        CLOUDY    47  45  93 CALM      29.67F FOG
LAWRENCE       CLOUDY    47  44  90 CALM      29.70F FOG
BEDFORD        FOG       43  42  97 W7        29.68F VSB 1
BLUE HILL        N/A     46  44  93 W7        29.66F
NORWOOD        MOCLDY    48  46  93 W6        29.68F
MARSHFIELD     PTCLDY    48  48 100 CALM      29.67F FOG
PLYMOUTH       PTCLDY    48  46  93 W3        29.68S
TAUNTON        FOG       44  43  96 CALM      29.67F VSB 1/4
NEW BEDFORD    PTCLDY    44  43  96 SW7       29.68S
$$

MAZALL-162300-
CAPE COD AND THE ISLANDS

CITY           SKY/WX    TMP DP  RH WIND       PRES   REMARKS
FALMOUTH       MOCLDY    46  46 100 NW7       29.68S
HYANNIS        MOCLDY    49  48  97 NW9       29.66S
CHATHAM        LGT RAIN  50  50 100 NW13G25   29.65R
PROVINCETOWN   LGT RAIN  49  48  97 CALM      29.68S
NANTUCKET      CLEAR     49  49 100 W15G22    29.67R
MARTHAS VNYRD  CLEAR     48  47  96 W5        29.69R
$$

MAZALL-162300-
CENTRAL AND WESTERN MASSACHUSETTS

CITY           SKY/WX    TMP DP  RH WIND       PRES   REMARKS
WORCESTER      LGT RAIN  42  37  82 W15G38    29.70R SQUALL
FITCHBURG      LGT RAIN  45  44  97 CALM      29.70S
ORANGE         CLOUDY    42  41  96 CALM      29.70F
SPRINGFIELD    MOCLDY    42  41  94 S3        29.71R
WESTFIELD      CLOUDY    42  42 100 NW3       29.72R FOG
NORTH ADAMS    CLOUDY    42  39  89 W8        29.72R
PITTSFIELD     CLOUDY    42  35  76 W10       29.72R
$$

RIZALL-162300-
RHODE ISLAND

CITY           SKY/WX    TMP DP  RH WIND       PRES   REMARKS
PROVIDENCE     PTCLDY    48  48 100 W5        29.71R
NEWPORT        CLEAR     48  47  96 CALM      29.70R FOG
BLOCK ISLAND   MOCLDY    53  46  77 W13G21    29.72R
SMITHFIELD     CLOUDY    46  46 100 CALM      29.69R
WESTERLY       PTCLDY    51  49  92 CALM      29.72R
$$

CTZALL-162300-
CONNECTICUT

CITY           SKY/WX    TMP DP  RH WIND       PRES   REMARKS
BRADLEY INTL   RAIN      46  43  89 VRB3      29.72R FOG
HARTFORD       LGT RAIN  47  42  83 SW5       29.74R
BRIDGEPORT     CLEAR     52  35  52 W15G23    29.75R
DANBURY        PTCLDY    48  35  60 W13G23    29.78R
GROTON         MOCLDY    52  43  71 W7        29.71R
NEW HAVEN      PTCLDY    52  36  54 NW7       29.74R
CHESTER        FAIR      50  36  57 W9G21     29.73R
MERIDEN        CLOUDY    48  38  68 CALM      29.75R
WILLIMANTIC    PTCLDY    46  44  93 W7        29.74R
OXFORD         PTCLDY    45  37  73 W10       29.75R
$$

MEZ002-015-021-024-NHZ003-005-008-011-012-014-VTZ005-008-162300-
NORTHERN NEW ENGLAND

CITY           SKY/WX    TMP DP  RH WIND       PRES   REMARKS
PORTLAND ME    LGT RAIN  46  45  96 SE8       29.72F
BANGOR ME      LGT RAIN  42  37  82 N6        29.77F
CONCORD NH     CLOUDY    40  38  93 NW8       29.70S
MANCHESTER NH  CLOUDY    42  41  96 N7        29.68S
NASHUA NH      CLOUDY    42  42 100 W5        29.70F
PORTSMOUTH NH  LGT RAIN  45  44  97 N7        29.66F FOG
JAFFREY NH     LGT RAIN  42  42 100 CALM      29.68S FOG
KEENE NH       LGT RAIN N/A N/A N/A VRB5      29.71R
BURLINGTON VT  MOCLDY    47  39  74 S6        29.66F
MT. WASHINGTON SNOWSHWR  23  23 100 W25         N/A  VSB 1/16WCI   7
$$

NYZ052-076-162300-
EASTERN NEW YORK

CITY           SKY/WX    TMP DP  RH WIND       PRES   REMARKS
ALBANY         PTCLDY    43  35  73 SW6       29.74S
NEW YORK CITY  PTCLDY    51  34  52 NW22G31   29.81R
$$

ANZALL-162300-
MARINE OBSERVATIONS

STATION/POSITION TIME  TEMP    WIND        PRES    VSBY  WAVE
                       AIR SEA DIR/SP/G                  HT/PER
                 (UTC) (F)     (DEG/KT/KT) (MB)    (MI)  (FT/S)
BOSTON BUOY      2150   49 51  200/  6/  8 1004.0F         6/10
BUZZARDS BAY     2100   51     300/ 12/ 13 1005.9R
NANTUCKET SOUND  2150   49 50  320/ 17/ 21 1003.9R         2/ 3
MASS BAY-STELLWA 2104   50 51  180/ 12/ 14 1004.5F         7/11
ISLE OF SHOALS   2100   47     250/  3/  4 1005.5F
S OF BLOCK IS    NOT AVBL
$$

......................KEY.........................
  SKY/WX - SKY CONDITION/PRESENT WEATHER
  TMP    - TEMPERATURE IN FAHRENHEIT
  DWPT   - DEWPOINT IN FAHRENHEIT
  RH     - RELATIVE HUMIDITY IN PERCENT
  WIND   - DIRECTION AND SPEED IN MPH
  PRES   - MEAN SEA LEVEL PRESSURE IN INCHES OF HG
  WCI    - WIND CHILL INDEX
  VSB    - VISIBILITY IN MILES
  HX     - HEAT INDEX
  TC     - TEMPERATURE IN CELSIUS
  VRB    - VARIABLE WIND DIRECTION
  N/A    - NOT AVAILABLE




USA.gov is the U.S. government's official web portal to all federal, state and local government web resources and services.